Погода в Стерлитамаке

Погода в Стерлитамаке : погода сейчас, прогноз погоды и архив. Всё, что Вы хотите узнать о погоде в Стерлитамаке!

Хотите узнать прогноз погоды в Стерлитамаке? Тогда Вам сюда: Погода в Стерлитамаке

Поиск расширенной информации на нашем сайте:

Другие новости

Новости СМИ2

Главная страница сайта

Новости сайта

03.07.2017

Напоминаем, что на нашем специализированном сайте Метеоцентр.Азия вы можете получить высокодетализированные автоматические прогнозы погоды по пунктам России, СНГ и мира в авиационном формате (включающие направление и скорость ветра, видимость, явления погоды, количество и форму облачности, нижнюю и верхнюю границу облачности).


Погода в Стерлитамаке - сегодня

Время (UTC), дата Ветер
(°,м/с) 
Видим.   Явления Облачность Т
(°С)
Тd
(°С)
f(%) Тe
(°С)
Pmin
(гПа)
dP
(гПа)
Po
(мм)
O2
(г/м3)
Тmin Tmax R s Состояние
почвы
18 16.10.17 070 (В) 10 км  {ливн. осадки}  8/8 600 м кучево-дожд. 
[Cb cap]
+8.6 +6.3 85 +10  1005.1  0.5  741  289           
21 16.10.17 тихо ()   10 км    9/9 600 м кучево-дожд. 
[Cb cap]
+8.5 +6.1 85 +9  1004.8  -0.3  741  289           
00 17.10.17 070 (В) 10 км    8/6 1000 м средняя 
[Sc|Ac trans]
+9.3 +6.2 81 +10  1004.2  -0.5  741  288           
03 17.10.17 070 (В) 10 км  слаб. ливневой дождь  10/10 600 м кучево-дожд. 
[Cb cap]
+9.2 +6.9 86 +10  1004.7  0.5  741  288  +7.7    0.4    влажная 
06 17.10.17 080 (В) 10 км  {ливн. осадки}  10/10 600 м кучево-дожд. 
[Cb cap]
+10 +7.2 83 +11  1004.7  741  287           
09 17.10.17 160 (Ю) 20000 м    9/8 600 м кучево-дожд., верхняя 
[Cb cap|Ci fib]
+12.9 +5.1 59 +13  1004  -0.5  741  284           
12 17.10.17 190 (Ю) 10 км  слаб. ливневой дождь  10/10 600 м кучево-дожд. 
[Cb cap]
+9.3 +7.5 89 +10  1005.3  742  288           
15 17.10.17 190 (Ю) 10 км  {ливн. осадки}  10/10 600 м кучево-дожд. 
[Cb cap]
+8.6 +6.7 88 +10  1005.4  0.1  742  289    +13.2     
18 17.10.17 200 (Ю) 10 км  {ливн. осадки}  10/10 600 м кучево-дожд. 
[Cb cap]
+7.4 +5.7 89 +8  1005.7  0.2  742  290           
21 17.10.17 220 (ЮЗ) 10 км    8/8 1000 м 
[Sc]
+4.7 +3.2 90 +6  1005.6  -0.3  742  293           
00 18.10.17 210 (ЮЗ) 10 км  {ливн. осадки}  10/10 600 м кучево-дожд. 
[Cb cap]
+2.9 +1.6 91 +4  1005.9  0.2  742  295           
03 18.10.17 тихо ()   10 км  слаб. ливневой дождь  10/10 600 м кучево-дожд. 
[Cb cap]
+3.4 +1.9 90 +3  1006.4  0.6  742  295  +1.8    0.0    влажная 
06 18.10.17 340 (С) 10 км  {ливн. осадки}  10/10 600 м кучево-дожд. 
[Cb cap]
+6.5 +3.1 79 +6  1008.1  1.8  744  292           
09 18.10.17 020 (С) 10 км    10/10 1000 м кучево-дожд. 
[Cb cap]
+7.2 +1 65 +7  1008.8  0.7  744  292           
12 18.10.17 220 (ЮЗ) 10 км    9/9 1000 м кучево-дожд. 
[Cb cap]
+8.5 +1.1 60 +10  1008.4  -0.3  744  291           
15 18.10.17 230 (ЮЗ) 10 км    10/10 1000 м кучево-дожд. 
[Cb cap]
+5.2 +1.2 75 +6  1008.8  0.2  744  294    +8.5       
18 18.10.17 210 (ЮЗ) 10 км    10/10 600 м кучево-дожд. 
[Cb cap]
+5.6 +2 78 +5  1007.3  -1.5  743  293           
21 18.10.17 210 (ЮЗ) 10 км    10/10 1000 м 
[Sc]
+6.5 +3.1 79 +6  1005.4  -1.8  742  291           
00 19.10.17 210 (ЮЗ) 10 км    10/10 600 м кучево-дожд. 
[Cb cap]
+6.8 +3.4 79 +7  1004.7  -0.7  741  291           
03 19.10.17 230 (ЮЗ) 10 км  в посл. час ливневой дождь  10/10 600 м кучево-дожд. 
[Cb cap]
+7.2 +4.7 84 +7  1004.4  -0.3  741  290  +4.9    0.0    влажная 
06 19.10.17 220 (ЮЗ) 20000 м  {ливн. осадки}  8/5 600 м кучево-дожд., средняя 
[Cb cap|Ac trans]
+10.2 +6.2 76 +10  1004.4  0.2  741  287           
09 19.10.17 240 (ЮЗ) 10 км    10/10 600 м кучево-дожд. 
[Cb cap]
+10.8 +6.7 76 +11  1004.1  -0.3  741  286           
12 19.10.17 тихо ()   20000 м  {ливн. осадки}  6/0 средняя 
[Ac trans]
+10.9 +1.8 53 +11               
15 19.10.17 240 (ЮЗ) 10 км  {ливн. осадки}  8/8 600 м кучево-дожд. 
[Cb cap]
+8.1 +5.5 84 +9  1006.4  742  290    +10.9     
18 19.10.17 230 (ЮЗ) 10 км  {ливн. осадки}  4/0 средняя 
[Ac trans]
+4 +1.1 81 +5  1009.2  2.5  744  295           
Время (UTC), дата Ветер
(°,м/с) 
Видим.   Явления Облачность Т
(°С)
Тd
(°С)
f(%) Тe
(°С)
Pmin
(гПа)
dP
(гПа)
Po
(мм)
O2
(г/м3)
Тmin Tmax R s Состояние
почвы

Для получения пояснительной информации подведите курсор к названию столбца.

ПОГОДА в Стерлитамаке - архив

Всё, что Вы хотите узнать о погоде в Стерлитамаке - удобно и подробно!

Выберите нужную дату (начиная с 1 января 2015* года) и нажмите кнопку "Найти".
Будут отображены архивные сводки погоды по пункту Стерлитамак, начиная с указанной даты.


Отображать данные в формате CSV (для использования в таблицах Excel)


Внимание! Наш архив погоды предназначен исключительно для личного некоммерческого использования в познавательных целях. Если Вам необходимы официальные справки о состоянии погоды (для производственных, юридических, коммерческих и т.п. целей), обращайтесь в органы Росгидромета.

*Примечание: данная дата относится к архиву по метеостанциям СССР (Россия, СНГ, Балтия).
Архив по метеостанциям Зарубежной Европы и Азии (кроме Китая) хранится 10 дней, по другим регионам земного шара (Китай, Африка, Америка, Австралия, Океания) - 1 день.

Стерлитамак - район местоположения метеостанции


Название, широта, долгота, высота метеостанции:
Стерлитамак 53.6°ш. 56°д. 137 м над ур. моря [Российская Федерация]

Дополнительная информация

В oтличие oт бoльшинства пoгoдных сайтoв мы публикуем пoдрoбную метеoинфoрмацию в детальнoм прoфессиoнальнoм фoрмате.

Характеристики температуры и влажнoсти вoздуха измеряются на высoте 2 м в тени вдали oт зданий и деревьев.
Скoрoсть ветра измеряется на высoте 10 м (на урoвне рoста челoвека скoрoсть ветра ниже в 1.5-2 раза). Если метеoстанция нахoдится в гoрoде или в лесу, тo скoрoсть ветра занижена на 2-4 м/с пo сравнению с oткрытым местoм. Скoрoсть ветра над акватoриями крупных рек и oзёр, а также на вершинах хoлмoв на 2-5 м/с выше, чем в oбычных услoвиях.
Атмoсфернoе давление в разных тoчках местнoсти мoжет значительнo oтличаться oт давления на метеoстанции, в зависимoсти oт услoвий рельефа (при пoдъёме на 10 м давление пoнижается примернo на 1 мм рт.ст.).